Location: Stockholm
(59.3330°N, 18.0500°E)
Time: 23:57:41
(UTC+02:00)

NOAA 18 - Pass Details

Date: 08 April 2023
Orbit: 838 x 860 km, 98.9° (Epoch: 02 June)

Event Time Altitude Azimuth Distance (km) Brightness Sun altitude
Exits shadow 21:39:56 19° 140° (SE) 1,950 6.5 -13.4°
Maximum altitude 21:43:57 62° 64° (ENE) 968 5.4 -13.8°
Drops below altitude 10° 21:49:26 10° 345° (NNW) 2,508 8.6 -14.3°
Sets 21:51:50 0° 343° (NNW) 3,446 9.5 -14.5°
